Regional Weather Roundup
Issued by NWS Green Bay, WI

Home | Current Version | Previous Version | Graphics & Text | Print | Product List | Glossary Off
Versions: 1 2 3 4 5 6 7 8 9 10 11 12 13 14 15 16 17 18 19 20 21 22 23 24 25 26 27 28 29 30 31 32 33 34 35 36 37 38 39 40 41 42 43 44 45 46 47 48 49 50

000
ASUS43 KGRB 200011
RWRGRB

NORTH-CENTRAL AND NORTHEAST WISCONSIN REGIONAL WEATHER ROUNDUP
NATIONAL WEATHER SERVICE GREEN BAY WI
600 PM CST SUN FEB 19 2017

WIZ005-009-010>012-018-019-200100-
NORTH CENTRAL WISCONSIN

CITY           SKY/WX    TMP DP  RH WIND       PRES   REMARKS
IRONWOOD       PTCLDY    49  28  44 E10       29.98F
MANITOWISH WTR PTCLDY    38  29  70 E3        30.00S
ARBOR VITAE    PTCLDY    49  29  46 SE3       30.01R
EAGLE RIVER    CLOUDY    40  24  52 SE3       30.01S
LAND O LAKES   CLEAR     41  26  55 CALM      30.03S
RHINELANDER    PTCLDY    50  26  39 SE3       30.02S
PHILLIPS       CLOUDY    44  28  54 SE3       29.99S
ANTIGO         CLOUDY    40  30  66 SE8       30.03S
TOMAHAWK       CLOUDY    41  28  60 CALM      30.02R
MERRILL        NOT AVBL
$$

WIZ013-073-200100-
NORTHEAST WISCONSIN

CITY           SKY/WX    TMP DP  RH WIND       PRES   REMARKS
IRON MOUNTAIN  CLOUDY    42  29  59 E6        30.06R
MARINETTE      MOCLDY    38  31  76 SE6       30.10R
OCONTO         CLOUDY    39  31  72 SE6       30.09R
$$

WIZ017-030-035>037-045-200100-
CENTRAL WISCONSIN

CITY           SKY/WX    TMP DP  RH WIND       PRES   REMARKS
MEDFORD        PTCLDY    45  30  55 E7        29.99S
WAUSAU         CLEAR     51  29  42 E5        30.01R
MOSINEE        PTCLDY    52  30  43 SE5       30.02S
MARSHFIELD     PTCLDY    48  32  53 E7        29.99S
WISC RAPIDS    CLOUDY    50  33  52 SE7       30.02R
STEVENS POINT  CLEAR     46  31  56 E3        30.03R
WAUPACA        CLOUDY    48  35  61 CALM      30.04R
SHAWANO        CLEAR     39  33  78 CALM      30.06R
CLINTONVILLE   CLEAR     46  32  57 E3        30.05R
WAUTOMA        CLOUDY    49  35  58 E3        30.03R
$$

WIZ038-039-048-051-200100-
FOX VALLEY

CITY           SKY/WX    TMP DP  RH WIND       PRES   REMARKS
NWS GREEN BAY  CLEAR     45  36  70 E7        30.07R
APPLETON       PTCLDY    50  30  46 CALM      30.04R
OSHKOSH        PTCLDY    45  33  63 CALM      30.04S
FOND DU LAC    CLOUDY    46  31  55 E5        30.05R
$$

WIZ022-050-052-200100-
EAST CENTRAL WISCONSIN

CITY           SKY/WX    TMP DP  RH WIND       PRES   REMARKS
EPHRAIM        FAIR      38  30  74 SE5       30.09S
WASHINGTON ISL FAIR      37  29  74 CALM      30.10R
STURGEON BAY   PTCLDY    39  31  72 E7        30.10R
MANITOWOC      CLEAR     39  31  72 MISG      30.10R
SHEBOYGAN      CLOUDY    41  30  65 E5        30.08R
$$

LMZ563-521-522-541>543-200100-
LAKESHORE

STATION/POSITION TIME  TEMP    WIND        PRES    VSBY  WAVE
                       AIR SEA DIR/SP/G                  HT/PER
                 (UTC) (F)     (DEG/KT/KT) (MB)    (MI)  (FT/S)
SHEBOYGAN LKSHOR 0000   40      CALM  /  1 1019.0R
KEWAUNEE LKSHORE 2348   39      50/  1/  5 1018.6R
NORTHPORT PIER   2340   39      CALM  /  5 1019.6R
SISTER BAY LKSHO 2250   44     140/  8/ 12   N/A
CHAMBERS ISLAND  2330   42     110/  5/  8 1018.6R
MENOMINEE LKSHOR 2348   36     100/  4/  5 1018.2R
$$



USA.gov is the U.S. government's official web portal to all federal, state and local government web resources and services.